When you browse on this site, cookies collect data to enhance your experience and personalize the content and advertising you see.
Visit our Privacy Policy to learn more. By continuing to use the site, you agree to this use of cookies and data.
  • In Hungary
  • List of Countries
  • For 7 days
  • Water Temperature
  • Weather Map
  • News
  • Weather Widgets
  • user-avatar
    Login

    Hourly Weather Mordovo

    Today, 22 October, Tuesday

    Time Temperature Precipitation Wind Pressure Humidity
    00:00 +10°C° 0 mm 5 mps 765 mmHg 70%
    01:00 +10°C° 0 mm 5 mps 764 mmHg 69%
    02:00 +10°C° 0 mm 6 mps 764 mmHg 68%
    03:00 +10°C° 0 mm 6 mps 764 mmHg 68%
    04:00 +10°C° 0 mm 6 mps 763 mmHg 69%
    05:00 +10°C° 0 mm 5 mps 763 mmHg 69%
    06:00 +10°C° 0 mm 5 mps 763 mmHg 70%
    07:00 +10°C° 0 mm 5 mps 763 mmHg 70%
    08:00 +12°C° 0 mm 5 mps 763 mmHg 69%
    09:00 +12°C° 0 mm 5 mps 763 mmHg 70%
    10:00 +13°C° 0 mm 5 mps 763 mmHg 69%
    11:00 +14°C° 0 mm 4 mps 763 mmHg 69%
    12:00 +14°C° 0 mm 4 mps 763 mmHg 69%
    13:00 +14°C° 0.5 mm 4 mps 763 mmHg 73%
    14:00 +13°C° 0.5 mm 4 mps 762 mmHg 77%
    15:00 +13°C° 0.5 mm 3 mps 762 mmHg 82%
    16:00 +13°C° 0 mm 3 mps 762 mmHg 83%
    17:00 +14°C° 0 mm 2 mps 763 mmHg 85%
    18:00 +13°C° 0 mm 2 mps 763 mmHg 86%
    19:00 +13°C° 0 mm 2 mps 763 mmHg 88%
    20:00 +13°C° 0 mm 2 mps 763 mmHg 90%
    21:00 +12°C° 0 mm 2 mps 763 mmHg 92%
    22:00 +12°C° 0 mm 2 mps 763 mmHg 91%
    23:00 +10°C° 0 mm 2 mps 763 mmHg 91%

    Tomorrow, 23 October, Wednesday

    Time Temperature Precipitation Wind Pressure Humidity
    00:00 +10°C° 0 mm 2 mps 763 mmHg 91%
    01:00 +10°C° 0 mm 2 mps 763 mmHg 90%
    02:00 +10°C° 0 mm 2 mps 763 mmHg 89%
    03:00 +10°C° 0 mm 1 mps 763 mmHg 89%
    04:00 +10°C° 0 mm 1 mps 763 mmHg 88%
    05:00 +10°C° 0 mm 1 mps 763 mmHg 88%
    06:00 +9°C° 0 mm 1 mps 763 mmHg 87%
    07:00 +10°C° 0 mm 1 mps 763 mmHg 83%
    08:00 +11°C° 0 mm 1 mps 763 mmHg 79%
    09:00 +12°C° 0 mm 1 mps 763 mmHg 75%
    10:00 +13°C° 0 mm 2 mps 763 mmHg 71%
    11:00 +13°C° 0 mm 3 mps 763 mmHg 66%
    12:00 +16°C° 0 mm 3 mps 762 mmHg 61%
    13:00 +16°C° 0 mm 3 mps 762 mmHg 62%
    14:00 +15°C° 0 mm 4 mps 762 mmHg 63%
    15:00 +17°C° 0 mm 4 mps 761 mmHg 63%
    16:00 +15°C° 0 mm 4 mps 761 mmHg 68%
    17:00 +16°C° 0 mm 3 mps 761 mmHg 72%
    18:00 +14°C° 0 mm 3 mps 761 mmHg 76%
    19:00 +14°C° 0.1 mm 4 mps 761 mmHg 78%
    20:00 +14°C° 0.1 mm 4 mps 761 mmHg 80%
    21:00 +14°C° 0.1 mm 5 mps 761 mmHg 82%
    22:00 +14°C° 0.9 mm 4 mps 761 mmHg 84%
    23:00 +13°C° 0.9 mm 4 mps 761 mmHg 85%

    Day after tomorrow, 24 October, Thursday

    Time Temperature Precipitation Wind Pressure Humidity
    00:00 +13°C° 0.9 mm 3 mps 761 mmHg 86%
    01:00 +13°C° 0.1 mm 3 mps 761 mmHg 87%
    02:00 +13°C° 0.1 mm 3 mps 761 mmHg 87%
    03:00 +13°C° 0.1 mm 2 mps 761 mmHg 87%
    04:00 +13°C° 0 mm 2 mps 761 mmHg 87%
    05:00 +13°C° 0 mm 2 mps 761 mmHg 88%
    06:00 +13°C° 0 mm 2 mps 761 mmHg 88%
    07:00 +13°C° 0 mm 2 mps 761 mmHg 86%
    08:00 +14°C° 0 mm 2 mps 761 mmHg 84%
    09:00 +14°C° 0 mm 2 mps 761 mmHg 82%
    10:00 +15°C° 0 mm 2 mps 761 mmHg 79%
    11:00 +16°C° 0 mm 2 mps 761 mmHg 76%
    12:00 +16°C° 0 mm 1 mps 761 mmHg 73%
    13:00 +18°C° 0 mm 1 mps 760 mmHg 72%
    14:00 +18°C° 0 mm 1 mps 760 mmHg 72%
    15:00 +18°C° 0 mm 1 mps 760 mmHg 71%
    16:00 +16°C° 0 mm 1 mps 760 mmHg 74%
    17:00 +16°C° 0 mm 1 mps 760 mmHg 77%
    18:00 +15°C° 0 mm 1 mps 760 mmHg 81%
    19:00 +15°C° 0 mm 1 mps 761 mmHg 82%
    20:00 +14°C° 0 mm 1 mps 761 mmHg 83%
    21:00 +14°C° 0 mm 2 mps 761 mmHg 84%
    22:00 +14°C° 0 mm 2 mps 761 mmHg 85%
    23:00 +13°C° 0 mm 2 mps 761 mmHg 86%

    25 October, Friday

    Time Temperature Precipitation Wind Pressure Humidity
    00:00 +13°C° 0 mm 2 mps 761 mmHg 87%
    01:00 +13°C° 0 mm 2 mps 761 mmHg 88%
    02:00 +13°C° 0 mm 2 mps 761 mmHg 88%
    03:00 +12°C° 0 mm 2 mps 760 mmHg 89%
    04:00 +12°C° 0 mm 2 mps 760 mmHg 90%
    05:00 +12°C° 0 mm 2 mps 760 mmHg 90%
    06:00 +12°C° 0 mm 2 mps 761 mmHg 90%
    07:00 +12°C° 0 mm 2 mps 761 mmHg 90%
    08:00 +11°C° 0 mm 3 mps 761 mmHg 90%
    09:00 +11°C° 0 mm 3 mps 761 mmHg 90%
    10:00 +13°C° 0.1 mm 2 mps 761 mmHg 88%
    11:00 +13°C° 0.1 mm 2 mps 761 mmHg 85%
    12:00 +14°C° 0.1 mm 2 mps 761 mmHg 83%
    13:00 +14°C° 0 mm 2 mps 761 mmHg 82%
    14:00 +14°C° 0 mm 2 mps 761 mmHg 80%
    15:00 +15°C° 0 mm 2 mps 761 mmHg 79%
    16:00 +14°C° 0 mm 2 mps 762 mmHg 79%
    17:00 +14°C° 0 mm 2 mps 762 mmHg 79%
    18:00 +13°C° 0 mm 1 mps 762 mmHg 79%
    19:00 +13°C° 0 mm 1 mps 762 mmHg 77%
    20:00 +13°C° 0 mm 1 mps 762 mmHg 75%
    21:00 +12°C° 0 mm 1 mps 763 mmHg 73%
    22:00 +12°C° 0 mm 1 mps 763 mmHg 74%
    23:00 +12°C° 0 mm 2 mps 763 mmHg 74%

    26 October, Saturday

    Time Temperature Precipitation Wind Pressure Humidity
    00:00 +12°C° 0 mm 2 mps 763 mmHg 75%
    01:00 +12°C° 0 mm 1 mps 763 mmHg 79%
    02:00 +11°C° 0 mm 1 mps 763 mmHg 83%
    03:00 +11°C° 0 mm 1 mps 763 mmHg 88%
    04:00 +11°C° 0 mm 1 mps 763 mmHg 89%
    05:00 +11°C° 0 mm 1 mps 763 mmHg 90%
    06:00 +11°C° 0 mm 1 mps 763 mmHg 92%
    07:00 +11°C° 0 mm 1 mps 763 mmHg 89%
    08:00 +12°C° 0 mm 2 mps 764 mmHg 86%
    09:00 +13°C° 0 mm 2 mps 764 mmHg 83%
    10:00 +14°C° 0 mm 2 mps 764 mmHg 76%
    11:00 +15°C° 0 mm 2 mps 764 mmHg 68%
    12:00 +16°C° 0 mm 2 mps 764 mmHg 60%
    13:00 +16°C° 0 mm 2 mps 763 mmHg 58%
    14:00 +16°C° 0 mm 2 mps 763 mmHg 56%
    15:00 +16°C° 0 mm 2 mps 763 mmHg 55%
    16:00 +15°C° 0 mm 1 mps 763 mmHg 58%
    17:00 +14°C° 0 mm 1 mps 763 mmHg 61%
    18:00 +12°C° 0 mm 0 mps 763 mmHg 65%
    19:00 +13°C° 0 mm 1 mps 763 mmHg 65%
    20:00 +12°C° 0 mm 1 mps 763 mmHg 65%
    21:00 +12°C° 0 mm 1 mps 763 mmHg 65%
    22:00 +12°C° 0 mm 1 mps 763 mmHg 65%
    23:00 +12°C° 0 mm 1 mps 762 mmHg 66%

    27 October, Sunday

    Time Temperature Precipitation Wind Pressure Humidity
    00:00 +10°C° 0 mm 0 mps 762 mmHg 66%
    01:00 +11°C° 0 mm 1 mps 762 mmHg 65%
    02:00 +11°C° 0 mm 1 mps 762 mmHg 65%
    03:00 +11°C° 0 mm 1 mps 762 mmHg 65%
    04:00 +11°C° 0 mm 1 mps 762 mmHg 66%
    05:00 +9°C° 0 mm 2 mps 762 mmHg 67%
    06:00 +9°C° 0 mm 2 mps 762 mmHg 68%
    07:00 +10°C° 0 mm 2 mps 762 mmHg 67%
    08:00 +10°C° 0 mm 2 mps 762 mmHg 65%
    09:00 +12°C° 0 mm 2 mps 762 mmHg 63%
    10:00 +12°C° 0 mm 3 mps 761 mmHg 59%
    11:00 +13°C° 0 mm 3 mps 761 mmHg 55%
    12:00 +14°C° 0 mm 4 mps 761 mmHg 51%
    13:00 +14°C° 0 mm 4 mps 760 mmHg 51%
    14:00 +15°C° 0 mm 4 mps 760 mmHg 51%
    15:00 +15°C° 0 mm 5 mps 759 mmHg 50%
    16:00 +14°C° 0 mm 4 mps 759 mmHg 55%
    17:00 +13°C° 0 mm 4 mps 758 mmHg 59%
    18:00 +12°C° 0 mm 4 mps 758 mmHg 63%
    19:00 +12°C° 0 mm 4 mps 758 mmHg 65%
    20:00 +11°C° 0 mm 4 mps 758 mmHg 68%
    21:00 +11°C° 0 mm 4 mps 758 mmHg 70%
    22:00 +11°C° 0 mm 4 mps 757 mmHg 72%
    23:00 +10°C° 0 mm 4 mps 757 mmHg 73%

    28 October, Monday

    Time Temperature Precipitation Wind Pressure Humidity
    00:00 +10°C° 0 mm 4 mps 757 mmHg 75%
    01:00 +10°C° 0 mm 4 mps 756 mmHg 75%
    02:00 +9°C° 0 mm 5 mps 755 mmHg 76%
    03:00 +9°C° 0 mm 5 mps 755 mmHg 77%
    04:00 +8°C° 0 mm 5 mps 754 mmHg 77%
    05:00 +8°C° 0 mm 5 mps 754 mmHg 78%
    06:00 +8°C° 0 mm 5 mps 753 mmHg 78%
    07:00 +9°C° 0 mm 6 mps 753 mmHg 76%
    08:00 +10°C° 0 mm 7 mps 752 mmHg 74%
    09:00 +11°C° 0 mm 7 mps 751 mmHg 71%
    10:00 +11°C° 0.1 mm 7 mps 751 mmHg 72%
    11:00 +11°C° 0.1 mm 8 mps 751 mmHg 72%
    12:00 +12°C° 0.1 mm 8 mps 750 mmHg 72%
    13:00 +11°C° 0.7 mm 8 mps 750 mmHg 75%
    14:00 +11°C° 0.7 mm 7 mps 750 mmHg 78%
    15:00 +10°C° 0.7 mm 6 mps 750 mmHg 81%
    16:00 +9°C° 0 mm 6 mps 750 mmHg 77%
    17:00 +9°C° 0 mm 5 mps 750 mmHg 72%
    18:00 +8°C° 0 mm 5 mps 751 mmHg 68%
    19:00 +7°C° 0 mm 5 mps 751 mmHg 68%
    20:00 +7°C° 0 mm 5 mps 751 mmHg 68%
    21:00 +6°C° 0 mm 5 mps 752 mmHg 68%
    22:00 +6°C° 0 mm 5 mps 752 mmHg 70%
    23:00 +6°C° 0 mm 5 mps 752 mmHg 72%
    Show more